Tracking 25195 objects as of 21-Jan-2022
HD Live streaming from Space Station
objects crossing your sky now

STARLINK-1919

Track STARLINK-1919 now!
10-day predictions
STARLINK-1919 is classified as:


NORAD ID: 46769
Int'l Code: 2020-074AG
Perigee: 416.1 km
Apogee: 425.8 km
Inclination: 53.1 °
Period: 92.8 minutes
Semi major axis: 6791 km
RCS: Unknown
Launch date: October 24, 2020
Source: United States (US)
Launch site: AIR FORCE EASTERN TEST RANGE (AFETR)
aabbcc
Your satellite tracking list
Your tracking list is empty




NASA's NSSDC Master Catalog

Two Line Element Set (TLE):
1 46769U 20074AG  22020.37319242  .00458979  00000-0  73346-2 0  9999
2 46769  53.0548 255.3825 0007175 269.4611  90.5576 15.50990819 69215
Source of the keplerian elements: AFSPC